Flight Track Log - Related Links

Times and Time Zones

All times are in EDT time to prevent confusion due to time zone crossing. See the RPA3247 flight status page for this flight to view local times or setup timezone preferences in your user account.

Time Position Orientation Groundspeed Altitude Reporting Facility
EDT Latitude Longitude Course Direction KTS MPH feet Rate Location/Type
Wed 05:50:14 PM 42.7319 -73.8053 177° South 139 160 1,300  Level Boston Center
Wed 05:50:39 PM 42.7153 -73.8050 179° South 131 151 2,300 1,835 Climbing Boston Center
Wed 05:51:39 PM 42.6833 -73.8550 229° Southwest 235 270 3,900 2,092 Climbing Boston Center
Wed 05:52:00 PM 42.3333 -74.1698 170° South  Level Estimated
Wed 05:52:28 PM 42.7139 -73.9122 306° West 247 284 6,100  Level Boston Center
Wed 05:53:00 PM 42.1944 -74.2914 169° South  Level Estimated
Wed 05:53:28 PM 42.7756 -73.9761 323° Northwest 247 284 9,400  Level Boston Center
Wed 05:54:00 PM 42.0554 -74.4124 171° South  Level Estimated
Wed 05:54:28 PM 42.8372 -74.0369 324° Northwest 257 296 13,000  Level Boston Center
Wed 05:55:00 PM 41.9162 -74.5329 177° South  Level Estimated
Wed 05:55:28 PM 42.9011 -74.0869 330° Northwest 263 303 15,700  Level Boston Center
Wed 05:56:28 PM 42.9608 -74.1453 324° Northwest 287 330 17,900 2,350 Climbing Boston Center
Wed 05:57:28 PM 42.9469 -74.2328 258° West 249 287 20,400 1,591 Climbing Boston Center
Wed 05:58:40 PM 42.8619 -74.2047 166° South 138 159 21,400 1,227 Climbing Boston Center
Wed 05:59:40 PM 42.7461 -74.1422 158° South 261 300 23,100 1,700 Climbing Boston Center
Wed 06:00:40 PM 42.6511 -74.0886 157° South 335 386 24,800 1,750 Climbing Boston Center
Wed 06:01:40 PM 42.5558 -74.0356 158° South 360 414 26,600 1,600 Climbing Boston Center
Wed 06:02:40 PM 42.4567 -73.9794 157° South 374 430 28,000 700 Climbing Boston Center
Wed 06:03:40 PM 42.3553 -73.9236 158° South 390 449 28,000  Level Boston Center
Wed 06:04:40 PM 42.2539 -73.8678 158° South 390 449 28,000  Level Boston Center
Wed 06:05:40 PM 42.1522 -73.8178 160° South 390 449 28,000  Level Boston Center
Wed 06:06:40 PM 42.0439 -73.8156 179° South 378 435 28,000  Level Boston Center
Wed 06:07:40 PM 41.9378 -73.8133 179° South 378 435 28,000 300 Level Boston Center
Wed 06:08:40 PM 41.8294 -73.8136 180° South 383 441 28,600 625 Climbing Boston Center
Wed 06:10:52 PM 41.6039 -73.8728 191° South 370 426 30,000 440 Climbing New York Center
Wed 06:11:51 PM 41.5214 -73.9297 207° Southwest 376 433 30,000  Level New York Center
Wed 06:12:51 PM 41.4281 -73.9919 207° Southwest 383 441 30,000  Level New York Center
Wed 06:13:52 PM 41.3325 -74.0536 206° Southwest 383 441 30,000  Level New York Center
Wed 06:14:53 PM 41.2350 -74.1150 205° Southwest 383 441 30,000  Level New York Center
Wed 06:15:51 PM 41.1394 -74.1792 207° Southwest 389 448 30,000  Level New York Center
Wed 06:16:51 PM 41.0442 -74.2319 203° Southwest 384 442 30,000 -500 Level New York Center
Wed 06:17:51 PM 40.9486 -74.2958 207° Southwest 384 442 29,000 -1,488 Descending New York Center
Wed 06:18:52 PM 40.8550 -74.3569 206° Southwest 384 442 27,000 -1,488 Descending New York Center
Wed 06:19:52 PM 40.7694 -74.4317 213° Southwest 376 433 26,000 -504 Descending New York Center
Wed 06:20:51 PM 40.7100 -74.5325 232° Southwest 354 407 26,000  Level New York Center
Wed 06:21:51 PM 40.6506 -74.6333 232° Southwest 360 414 26,000  Level New York Center
Wed 06:22:52 PM 40.5886 -74.7364 232° Southwest 360 414 26,000  Level New York Center
Wed 06:23:52 PM 40.5208 -74.8308 227° Southwest 360 414 26,000  Level New York Center
Wed 06:24:52 PM 40.4553 -74.9222 227° Southwest 360 414 26,000  Level New York Center
Wed 06:25:53 PM 40.3894 -75.0164 227° Southwest 354 407 26,000 -446 Level New York Center
Wed 06:26:53 PM 40.3214 -75.1103 226° Southwest 354 407 25,100 -1,373 Descending New York Center
Wed 06:27:51 PM 40.2597 -75.2017 229° Southwest 354 407 23,300 -1,765 Descending New York Center
Wed 06:28:52 PM 40.1958 -75.2872 226° Southwest 349 402 21,600 -1,623 Descending New York Center
Wed 06:29:53 PM 40.1364 -75.3731 228° Southwest 337 388 20,000 -793 Descending New York Center
Wed 06:30:53 PM 40.0767 -75.4558 227° Southwest 325 374 20,000  Level New York Center
Wed 06:31:53 PM 40.0150 -75.5439 228° Southwest 325 374 20,000  Level New York Center
Wed 06:32:53 PM 39.9550 -75.6344 229° Southwest 332 382 20,000  Level New York Center
Wed 06:33:52 PM 39.8944 -75.7303 231° Southwest 344 396 20,000  Level New York Center
Wed 06:34:53 PM 39.8364 -75.8236 231° Southwest 344 396 20,000  Level New York Center
Wed 06:35:53 PM 39.7719 -75.9161 228° Southwest 344 396 20,000 -100 Level New York Center
Wed 06:36:53 PM 39.7156 -76.0119 233° Southwest 344 396 19,800 -1,068 Descending New York Center
Wed 06:37:51 PM 39.6575 -76.0994 229° Southwest 337 388 17,900 -1,932 Descending New York Center
Wed 06:38:51 PM 39.5947 -76.1969 230° Southwest 337 388 16,000 -1,694 Descending New York Center
Wed 06:39:16 PM 39.5667 -76.2333 225° Southwest 311 358 15,500 -1,516 Descending Potomac TRACON
Wed 06:40:22 PM 39.5167 -76.3333 237° Southwest 300 345 13,700 -1,591 Descending Potomac TRACON
Wed 06:41:28 PM 39.4500 -76.4167 224° Southwest 288 331 12,000 -810 Descending Potomac TRACON
Wed 06:42:28 PM 39.3833 -76.4833 218° Southwest 290 334 12,000  Level Potomac TRACON
Wed 06:43:22 PM 39.3167 -76.5333 210° Southwest 293 337 12,000  Level Potomac TRACON
Wed 06:44:23 PM 39.2667 -76.5833 218° Southwest 251 289 12,000 -661 Level Potomac TRACON
Wed 06:45:29 PM 39.2000 -76.6333 210° Southwest 244 281 10,600 -1,000 Descending Potomac TRACON
Wed 06:46:23 PM 39.1500 -76.6833 218° Southwest 237 273 10,000 -316 Descending Potomac TRACON
Wed 06:47:23 PM 39.1000 -76.7333 218° Southwest 238 274 10,000 -200 Level Potomac TRACON
Wed 06:48:23 PM 39.0500 -76.8000 226° Southwest 218 251 9,600 -843 Descending Potomac TRACON
Wed 06:49:24 PM 39.0167 -76.8500 229° Southwest 190 219 8,300 -1,587 Descending Potomac TRACON
Wed 06:50:24 PM 38.9833 -76.8833 218° Southwest 199 229 6,400 -1,211 Descending Potomac TRACON
Wed 06:51:18 PM 38.9667 -76.9500 252° West 193 222 6,000 -211 Descending Potomac TRACON
Wed 06:52:18 PM 38.9833 -77.0167 288° West 196 226 6,000  Level Potomac TRACON
Wed 06:53:18 PM 39.0167 -77.0667 311° West 207 238 6,000  Level Potomac TRACON
Wed 06:54:18 PM 39.0500 -77.1167 311° West 186 214 6,000  Level Potomac TRACON
Wed 06:55:18 PM 39.0833 -77.1667 311° West 190 219 6,000  Level Potomac TRACON
Wed 06:56:18 PM 39.0833 -77.2333 270° West 175 201 6,000 -667 Level Potomac TRACON
Wed 06:57:24 PM 39.0500 -77.2500 201° Southwest 192 221 4,600 -1,095 Descending Potomac TRACON
Wed 06:58:24 PM 39.0000 -77.2000 142° Southeast 182 209 3,700 -789 Descending Potomac TRACON
Wed 06:59:18 PM 38.9833 -77.1667 123° Southeast 168 193 3,100 -842 Descending Potomac TRACON
Wed 07:00:18 PM 38.9500 -77.1333 142° Southeast 159 183 2,100 -1,000 Descending Potomac TRACON

Login

Don't have an account? Register now (free) for customized features, flight alerts, and more!